Content
SEND FEEDBACK

Daily
Averages
Monthly
Summary
United Kingdom

ROSS, ENGLAND


Home > Europe > United Kingdom > England
Elevation: 184 feet     Latitude: 51 54N     Longitude: 002 36W

WEATHER
 
SELECT A DAY
Number of Records: 113,869;   Date Range: 7/1/96 - 11/25/14
 
SHARE

PRINT THIS DATA

[ ← Previous Day ]
WEATHER ALMANAC - JANUARY 20, 2014
[ Next Day → ]
[ °C ]   °F
Weather ElementAverageHighLow
Temperature38.1 °F42.8 °F (4:20 pm)30.2 °F (8:20 am)
Dewpoint35.9 °F39.2 °F (2:50 pm)28.4 °F (8:20 am)
Humidity91.8 %93 % (7:50 am)87 % (2:20 pm)
Barometer29.79 in29.86 in (5:50 pm)29.71 in (7:50 am)
Wind Speed0.3 mph2.3 mph (1:50 pm)
Weather ElementAverage
Visibility4.3 mi
Wind DirectionNNE (28.3 °)

Weather ElementTotal
Precipitation---
Heating Degree Days28.5 (Base 65)
Averaged from 24 records on January 20, 2014
WEATHER CONDITIONS BREAKOUT
WIND DIRECTION BREAKOUT
WEATHER BY HOUR - JANUARY 20, 2014
[ °C ]   °F
Local TimeTemperatureDewpointHumidityBarometerVisibilityWind DirectionWind SpeedGust SpeedPrecipitationEventsConditions
7:50 AM32.0 °F30.2 °F93 %29.71 in5.0 miCalmScattered Clouds
8:20 AM30.2 °F28.4 °F93 %29.71 in5.6 miCalmScattered Clouds
8:50 AM32.0 °F30.2 °F93 %29.71 in6.2 miCalmScattered Clouds
9:20 AM33.8 °F32.0 °F93 %29.74 in5.6 miCalmScattered Clouds
9:50 AM33.8 °F32.0 °F93 %29.74 in3.7 miCalmScattered Clouds
10:20 AM33.8 °F32.0 °F93 %29.77 in1.2 miCalmRainLight Rain
10:50 AM35.6 °F33.8 °F93 %29.77 in2.5 miCalmRainLight Rain
11:20 AM37.4 °F35.6 °F93 %29.77 in4.3 miCalmRainLight Rain
11:50 AM39.2 °F37.4 °F93 %29.77 in3.1 miCalmMostly Cloudy
12:20 PM39.2 °F37.4 °F93 %29.77 in2.5 miCalmMostly Cloudy
12:50 PM39.2 °F37.4 °F93 %29.77 in2.5 miCalmMostly Cloudy
1:20 PM39.2 °F37.4 °F93 %29.77 in2.5 miCalmHaze
1:50 PM39.2 °F37.4 °F93 %29.80 in3.7 miNW (310°)2.3 mphMostly Cloudy
2:20 PM41.0 °F37.4 °F87 %29.80 in3.7 miCalmMostly Cloudy
2:50 PM41.0 °F39.2 °F93 %29.80 in3.7 miCalmMostly Cloudy
3:20 PM41.0 °F39.2 °F93 %29.80 in3.7 miESE (110°)2.3 mphMostly Cloudy
3:50 PM41.0 °F39.2 °F93 %29.83 in5.6 miCalmMostly Cloudy
4:20 PM42.8 °F39.2 °F87 %29.83 in5.6 miCalmMostly Cloudy
4:50 PM41.0 °F39.2 °F93 %29.83 in5.6 miWest (260°)2.3 mphMostly Cloudy
5:20 PM41.0 °F37.4 °F87 %29.83 in5.6 miCalmMostly Cloudy
5:50 PM41.0 °F37.4 °F87 %29.86 in5.6 miCalmMostly Cloudy
6:20 PM41.0 °F37.4 °F87 %29.86 in5.6 miCalmScattered Clouds
6:50 PM39.2 °F37.4 °F93 %29.86 in5.6 miCalmScattered Clouds
7:20 PM39.2 °F37.4 °F93 %29.86 in5.6 miCalmScattered Clouds
Hourly data recorded from EGBJ, located miles away from Ross, England







STORIES FROM OUR PARTNERS